Regional Weather Roundup
Issued by NWS Spokane, WA

Home | Current Version | Previous Version | Text Only | Print | Product List | Glossary On
Versions: 1 2 3 4 5 6 7 8 9 10 11 12 13 14 15 16 17 18 19 20 21 22 23 24 25 26 27 28 29 30 31 32 33 34 35 36 37 38 39 40 41 42 43 44 45 46 47 48 49 50
000
NZUS01 KOTX 230110
RWROTX
EASTERN WASHINGTON/NORTHERN IDAHO ROUNDUP
NATIONAL WEATHER SERVICE, SPOKANE WA
600 PM PDT WED OCT 22 2014

Note: "fair" indicated few or no clouds below 12,000 feet with no
significant weather and/or obstructions to visibility.

...NORTHEAST WASHINGTON AND NORTHERN IDAHO PANHANDLE...

CITY           SKY/WX    TMP DP  RH WIND       PRES   REMARKS
SPOKANE INTL   LGT RAIN  51  49  92 E6        29.81S
SPOKANE DOWNTO LGT RAIN  54  49  83 CALM      29.82S
COEUR D ALENE  CLOUDY    54  43  66 N7        29.80F
DEER PARK      RAIN      49  48  97 E7        29.82S FOG
SANDPOINT      LGT RAIN  48  48 100 NE8       29.83F

...SOUTHEAST WASHINGTON AND SOUTHERN IDAHO PANHANDLE...

CITY           SKY/WX    TMP DP  RH WIND       PRES   REMARKS
WALLA WALLA    CLOUDY    69  35  28 S18       29.74F
PULLMAN/MOSCOW CLOUDY    60  37  42 SE13      29.83S
LEWISTON       CLOUDY    67  34  29 S10       29.79S
LOWELL           N/A     54  51  90 CALM      29.90F

...COLUMBIA BASIN...

CITY           SKY/WX    TMP DP  RH WIND       PRES   REMARKS
EPHRATA        CLOUDY    54  52  93 NE5       29.69F
MOSES LAKE     CLOUDY    56  52  86 SE14      29.70F
TRI CITIES     LGT RAIN  62  56  80 SE9       29.71F
HERMISTON      LGT RAIN  63  51  65 SE7       29.70F
PENDLETON      LGT RAIN  66  42  41 SW14      29.73F

...EAST SLOPES CASCADES...

CITY           SKY/WX    TMP DP  RH WIND       PRES   REMARKS
THE DALLES     CLOUDY    57  53  86 N9        29.69R
YAKIMA         CLOUDY    60  50  69 SE7       29.67F
ELLENSBURG     LGT RAIN  54  50  86 E5        29.67F
WENATCHEE      LGT RAIN  50  46  86 CALM      29.68F
OMAK           RAIN      50  49  96 CALM      29.71F

...SOUTHERN BRITISH COLUMBIA...

CITY           SKY/WX    TMP DP  RH WIND       PRES   REMARKS
PENTICTON      LGT RAIN  54  46  76 S15G23    29.67F
CASTLEGAR      LGT RAIN  48  48 100 N5        29.79

...WESTERN MONTANA...

CITY           SKY/WX    TMP DP  RH WIND       PRES   REMARKS
MISSOULA       PTCLDY    56  39  53 E5        29.93F

...NEIGHBORING CITIES...

CITY           SKY/WX    TMP DP  RH WIND       PRES   REMARKS
SEATTLE        LGT RAIN  56  52  86 SE12G21   29.60F
CALGARY        MOCLDY    55  32  41 SE6       29.64F



USA.gov is the U.S. government's official web portal to all federal, state and local government web resources and services.